Location: Silverdale
(47.6506°N, 122.6941°W)
Time: 04:19:04
(UTC+00:00)

Altair - Pass Details

Date: 11 October 2022
Orbit: 1501 x 1682 km, 47.2° (Epoch: 04 December)

Event Time Altitude Azimuth Distance (km) Brightness Sun altitude
Rises 19:22:52 0° 284° (WNW) 4,909 9.9 34.6°
Reaches altitude 10° 19:29:26 10° 254° (WSW) 3,937 9.8 34.8°
Maximum altitude 19:31:57 11° 239° (WSW) 3,845 10.0 34.8°
Drops below altitude 10° 19:34:28 10° 224° (SW) 3,939 10.3 34.9°
Sets 19:41:06 0° 194° (SSW) 4,914 11.1 35.0°
